{"data":{"norad_id":60536,"intl_designator":"2024-149BW","name":"LEMUR-2-MARHISYAM","alt_names":[],"object_type":"PAYLOAD","status":"ACTIVE","operator":null,"country":"US","launch_date":"2024-08-16","launch_site_code":"AFWTR","launch_vehicle":null,"mission":null,"orbit_class":"UNKNOWN","rcs_meters":null,"size_class":null,"mass_kg":null,"dimensions":null,"purposes":["earth_obs"],"wikipedia_slug":null,"has_3d_model":false,"image_url":null,"decayed_at":null,"tle_current":{"epoch":"2026-05-25T05:09:45.631008Z","epoch_age_seconds":50390,"freshness":"FRESH","line1":"1 60536U 24149BW  26145.21511147  .00010538  00000+0  63972-3 0  9996","line2":"2 60536  97.6878 228.0053 0002606 158.2291 201.9049 15.10698331 97018","mean_motion":15.10698331,"eccentricity":0.0002606,"inclination_deg":97.6878,"raan_deg":228.0053,"arg_perigee_deg":158.2291,"mean_anomaly_deg":201.9049,"bstar":0.00063972,"rev_number":9701,"period_min":95.320155616165,"perigee_km":532.26771715435,"apogee_km":535.87035894138,"semimajor_km":6912.2060380479,"source":"CELESTRAK","updated_at":"2026-05-25T13:38:13.535813Z"}}}